This demonstration page uses our WeatherBlox Daily Observations layout. Learn more.

Left ArrowRight Arrow

Hourly Observations for November 5, 2019

Temp ( °F °C ) Dew Point ( °F °C ) Humidity (%) Winds ( mph kmh ) Pressure ( in mb ) Visibility ( mi km ) Precip ( " mm )
12:56 am 00:56 Mostly Cloudy 37 2.8 34 1.1 89 89 Calm 30.30 1026 10 16 0.00 0.00
1:56 am 01:56 Cloudy 38 3.3 34 1.1 86 86 WNW 5 7 30.30 1026 10 16 0.00 0.00
2:56 am 02:56 Cloudy 38 3.3 34 1.1 86 86 W 3 6 30.29 1026 10 16 0.00 0.00
3:56 am 03:56 Mostly Cloudy 36 2.2 33 0.6 89 89 Calm 30.29 1026 10 16 0.00 0.00
4:56 am 04:56 Cloudy 36 2.2 34 1.1 93 93 ESE 3 6 30.29 1026 10 16 0.00 0.00
5:56 am 05:56 Cloudy 37 2.8 34 1.1 89 89 Calm 30.30 1026 10 16 0.00 0.00
6:56 am 06:56 Cloudy 37 2.8 35 1.7 93 93 SSE 5 7 30.31 1026 10 16 0.00 0.00
7:56 am 07:56 Cloudy 38 3.3 35 1.7 89 89 SSE 6 9 30.32 1027 10 16 0.00 0.00
8:56 am 08:56 Cloudy 40 4.4 35 1.7 83 83 S 7 11 30.33 1027 10 16 0.00 0.00
9:56 am 09:56 Cloudy 42 5.6 36 2.2 79 79 SSW 14 22 30.31 1026 10 16 0.00 0.00
10:56 am 10:56 Cloudy 45 7.2 36 2.2 71 71 SSW 15 24 30.30 1026 10 16 0.00 0.00
11:56 am 11:56 Cloudy 45 7.2 37 2.8 74 74 S 16 26 30.27 1025 10 16 0.00 0.00
12:56 pm 12:56 Mostly Cloudy 49 9.4 37 2.8 64 64 SSW 14 22 30.22 1023 10 16 0.00 0.00
1:31 pm 13:31 Mostly Cloudy 54 12 37 3 54 54 SSW 21 33 30.16 1021 10 16 0.00 0.00
1:56 pm 13:56 Mostly Sunny 53 11.7 37 2.8 55 55 SW 16 26 30.18 1022 10 16 0.00 0.00
2:56 pm 14:56 Sunny 52 11.1 37 2.8 57 57 SSW 17 28 30.17 1022 10 16 0.00 0.00
3:56 pm 15:56 Sunny 53 11.7 36 2.2 52 52 SSW 20 31 30.14 1021 10 16 0.00 0.00
4:56 pm 16:56 Sunny 53 11.7 37 2.8 55 55 S 12 19 30.14 1021 10 16 0.00 0.00
5:56 pm 17:56 Clear 47 8.3 35 1.7 63 63 Calm 30.15 1021 10 16 0.00 0.00
6:56 pm 18:56 Clear 44 6.7 35 1.7 71 71 S 9 15 30.16 1021 10 16 0.00 0.00
7:56 pm 19:56 Clear 44 6.7 35 1.7 71 71 SSW 9 15 30.16 1021 10 16 0.00 0.00
8:56 pm 20:56 Clear 45 7.2 35 1.7 68 68 SSW 15 24 30.15 1021 10 16 0.00 0.00
9:56 pm 21:56 Clear 43 6.1 34 1.1 71 71 SSW 13 20 30.16 1022 10 16 0.00 0.00
10:56 pm 22:56 Clear 41 5 33 0.6 73 73 SW 10 17 30.17 1022 10 16 0.00 0.00
11:56 pm 23:56 Clear 39 3.9 32 0 76 76 SSW 9 15 30.16 1022 10 16 0.00 0.00

Powered by AerisWeather